Regional Weather Roundup
Issued by NWS

Home | Current Version | Previous Version | Graphics & Text | Print | Product List | Glossary On
Versions: 1 2 3 4 5 6 7 8 9 10 11 12 13 14 15 16 17 18 19 20 21 22 23 24 25 26 27 28 29 30 31 32 33 34 35 36 37 38 39 40 41 42 43 44 45 46 47 48 49 50
000
ASUS43 KTOP 161708
RWRKS

WEATHER ROUNDUP FOR KANSAS
NATIONAL WEATHER SERVICE GOODLAND KS
1200 PM CDT MON OCT 16 2017

NOTE:  "FAIR" INDICATES FEW OR NO CLOUDS BELOW 12,000 FEET WITH NO
SIGNIFICANT WEATHER AND/OR OBSTRUCTIONS TO VISIBILITY.

KSZ001>006-013>018-027>032-041>047-161800-
NORTHWEST KANSAS

CITY           SKY/WX    TMP DP  RH WIND       PRES   REMARKS
GOODLAND       SUNNY     70  32  24 S15G24    30.25F HAZE
HAYS           SUNNY     68  38  33 SW21      30.32F
HILL CITY      SUNNY     69  36  29 SW16G28   30.30F
RUSSELL        SUNNY     68  37  32 SW18      30.32F
$$

KSZ061>065-074>080-084>089-161800-
SOUTHWEST KANSAS

CITY           SKY/WX    TMP DP  RH WIND       PRES   REMARKS
DODGE CITY     SUNNY     66  32  28 S18       30.37F
ELKHART          N/A     62  38  41 S13         N/A
GARDEN CITY    SUNNY     67  33  28 SW21      30.33F
GREAT BEND     SUNNY     66  39  37 S14       30.35F
LIBERAL        SUNNY     65  37  35 SW17      30.37F
PRATT          SUNNY     65  34  32 SW15      30.39F
$$

KSZ066>073-081>083-090>101-161800-
SOUTHEAST KANSAS

CITY           SKY/WX    TMP DP  RH WIND       PRES   REMARKS
CHANUTE        SUNNY     63  42  46 SW7       30.43F
COFFEYVILLE    SUNNY     63  39  41 S8        30.44F
HUTCHINSON     SUNNY     66  40  38 SW12      30.38F
MEDICINE LODGE   N/A     66  36  32 S10       30.39F
NEWTON         SUNNY     63  41  44 S15       30.40F
PARSONS        LGT RAIN  62  39  42 SE7       30.45S
WICHITA INTL   SUNNY     63  41  44 S14       30.40F
WICHITA JABRA  SUNNY     63  39  41 SW14      30.40F
WICHITA MCCONL SUNNY     63  39  41 SW13      30.39F
WINFIELD       SUNNY     63  42  46 SW12      30.44F
$$

KSZ007>012-019>026-033>040-048>060-102>105-161800-
NORTHEAST KANSAS

CITY           SKY/WX    TMP DP  RH WIND       PRES   REMARKS
CONCORDIA      SUNNY     66  39  37 SW17      30.32F
EMPORIA        SUNNY     65  39  38 SW9       30.40F
LAWRENCE       SUNNY     63  44  50 S6        30.39F
MANHATTAN      SUNNY     65  42  43 SW13      30.36F
MARYSVILLE     SUNNY     64  43  45 SW8       30.34F
OLATHE IND     SUNNY     62  41  46 SW6       30.40F
OLATHE EXE     SUNNY     61  40  45 S8        30.40F
SALINA         SUNNY     67  44  43 S13       30.36F
TOPEKA BILLARD SUNNY     64  45  49 VRB5      30.38F
TOPEKA FORBES  SUNNY     65  44  46 SW7       30.38F
$$




USA.gov is the U.S. government's official web portal to all federal, state and local government web resources and services.